Flag for Norway Weather past 2 weeks in Kragerø, Norway

Now
40 °F

Quite cool.


Feels Like: 38 °F
Forecast: 33 / 46 °F
Wind: 3 mph from Southwest

Location: Jomfruland Fyr

Current Time: Mar 29, 2015 at 11:03:44 PM

Latest Report: Mar 29, 2015 at 10:00 PM


Visibility: N/A

Pressure: 28.97 "Hg

Humidity: 93%

Dew point: 38 °F

Location of KragerøLocation

Historic Weather in Kragerø — Graph

°F

Kragerø temperature yesterday

Maximum temperature yesterday: 41 °F (at 11:00 AM)
Minimum temperature yesterday: 31 °F (at 6:00 AM)
Average temperature yesterday: 37 °F

Past Weeks' High & Low Weather Summary

 TemperatureHumidityPressure
High48 °F (Mar 24, 3:00 PM)100% (Mar 26, 9:00 AM)30.83 "Hg (Mar 26, 9:00 AM)
Low29 °F (Mar 26, 6:00 AM)29% (Mar 21, 7:00 PM)29.00 "Hg (Mar 29, 6:00 PM)
Average39 °F82%30.11 "Hg
* Reported Mar 14 8:00 PM — Mar 29 9:00 PM, Kragerø, Weather by CustomWeather, © 2015

Note: Actual official high and low records may vary slightly from our data, if they occured in-between our weather recording intervals... More about our weather records

Advertising

Kragerø weather history for previous 24 hours

 ConditionsComfort  
Time TempWeatherWind HumidityBarometerVisibility
9:00 PM
Sun, Mar 29
40 °FQuite cool.5 mph92%29.00 "HgN/A
8:00 PM40 °FQuite cool.7 mph92%29.00 "HgN/A
7:00 PM41 °FQuite cool.8 mph92%29.00 "HgN/A
6:00 PM41 °FQuite cool.8 mph90%29.00 "HgN/A
5:00 PM42 °FQuite cool.9 mph86%29.03 "HgN/A
4:00 PM43 °FQuite cool.8 mph85%29.06 "HgN/A
3:00 PM44 °FQuite cool.7 mph81%29.06 "HgN/A
2:00 PM45 °FCool.3 mph79%29.09 "HgN/A
1:00 PM44 °FQuite cool.5 mph84%29.12 "HgN/A
12:00 PM42 °FQuite cool.6 mph87%29.12 "HgN/A
11:00 AM42 °FQuite cool.3 mph88%29.15 "HgN/A
10:00 AM40 °FQuite cool.3 mph90%29.15 "HgN/A
9:00 AM38 °FChilly.5 mph96%29.18 "HgN/A
8:00 AM37 °FChilly.3 mph97%29.18 "HgN/A
7:00 AM39 °FChilly.5 mph97%29.18 "HgN/A
6:00 AM40 °FQuite cool.7 mph97%29.18 "HgN/A
5:00 AM41 °FQuite cool.6 mph97%29.18 "HgN/A
4:00 AM41 °FQuite cool.8 mph96%29.21 "HgN/A
3:00 AM41 °FQuite cool.9 mph96%29.23 "HgN/A
1:00 AM40 °FChilly.7 mph96%29.29 "HgN/A
12:00 AM39 °FChilly.6 mph94%29.35 "HgN/A
11:00 PM
Sat, Mar 28
38 °FChilly.8 mph92%29.41 "HgN/A
Weather by CustomWeather, © 2015

See weather overviewHow to use our weather pages